Regional Weather Roundup
Issued by NWS Charleston, WV

Home | Current Version | Previous Version | Graphics & Text | Print | Product List | Glossary On
Versions: 1 2 3 4 5 6 7 8 9 10 11 12 13 14 15 16 17 18 19 20 21 22 23 24 25 26 27
000
ASUS41 KRLX 011510
RWRRLX
West Virginia Regional Weather Roundup
National Weather Service Charleston WV
1100 AM EDT SUN MAY 01 2016

Note: "fair" indicates few or no clouds below 12,000 feet with no
significant weather and/or obstructions to visibility.

WVZ003-011600-
Northern Panhandle of West Virginia

CITY           SKY/WX    TMP DP  RH WIND       PRES   REMARKS
WHEELING       CLOUDY    63  58  83 SW8       29.96R
$$

WVZ009-011600-
Northwest West Virginia

CITY           SKY/WX    TMP DP  RH WIND       PRES   REMARKS
PARKERSBURG    CLOUDY    66  59  78 SW8       30.00S
$$

WVZ006-011600-
Western West Virginia

CITY           SKY/WX    TMP DP  RH WIND       PRES   REMARKS
HUNTINGTON     PTSUNNY   68  64  87 S12       29.96F
$$

WVZ015-011600-
West Central West Virginia

CITY           SKY/WX    TMP DP  RH WIND       PRES   REMARKS
CHARLESTON     PTSUNNY   67  61  81 SW8       30.00S
$$

WVZ022-031-011600-
North Central West Virginia

CITY           SKY/WX    TMP DP  RH WIND       PRES   REMARKS
CLARKSBURG       N/A     66  59  78 SW10      29.99S
MORGANTOWN     CLOUDY    64  55  72 S7        29.99F
$$

WVZ025-035-042-045-011600-
Southern West Virginia

CITY           SKY/WX    TMP DP  RH WIND       PRES   REMARKS
BECKLEY        CLOUDY    62  57  83 SW6       30.05S
LOGAN          NOT AVBL
BLUEFIELD      PTSUNNY   62  57  83 W7        30.07F
LEWISBURG      CLOUDY    58  56  91 SW5       30.06S
$$

WVZ047-011600-
Northern Mountains of West Virginia

CITY           SKY/WX    TMP DP  RH WIND       PRES   REMARKS
ELKINS           N/A     64  54  69 S9        30.01S
$$

WVZ052-011600-
Eastern Panhandle of West Virginia

CITY           SKY/WX    TMP DP  RH WIND       PRES   REMARKS
MARTINSBURG    CLOUDY    54  52  93 SE6       30.04F
PETERSBURG       N/A     65  57  76 S8        30.00S
$$




USA.gov is the U.S. government's official web portal to all federal, state and local government web resources and services.